• Processing (Info)

  • MPEC 2014-J39 : 2014 HT184

    The following Minor Planet Electronic Circular may be linked-to from your own Web pages, but must not otherwise be redistributed electronically.

    A form allowing access to any MPEC is at the bottom of this page.


    Read MPEC 2014-J38 Read MPEC 2014-J40


    M.P.E.C. 2014-J39                                Issued 2014 May 4, 14:38 UT
    
         The Minor Planet Electronic Circulars contain information on unusual
             minor planets and routine data on comets.  They are published
       on behalf of Commission 20 of the International Astronomical Union by the
              Minor Planet Center, Smithsonian Astrophysical Observatory,
                              Cambridge, MA 02138, U.S.A.
    
                 Prepared using the Tamkin Foundation Computer Network
    
                                  MPC@CFA.HARVARD.EDU
                URL https://www.minorplanetcenter.net/    ISSN 1523-6714
    
                                      2014 HT184
    
    Observations:
         K14HI4T* C2014 04 30.46947 15 55 02.020-18 14 44.56         21.8 wLEJ039F51
         K14HI4T  C2014 04 30.48135 15 54 59.492-18 14 57.87         20.0 wLEJ039F51
         K14HI4T  C2014 04 30.49323 15 54 57.181-18 15 12.25         21.3 wLEJ039F51
         K14HI4T =C2014 05 01.61051 15 51 06.26 -18 37 46.2          20.6  tEJ039568
         K14HI4T =C2014 05 01.61176 15 51 05.97 -18 37 47.7          20.7  tEJ039568
         K14HI4T =C2014 05 01.61301 15 51 05.68 -18 37 49.2          20.8  tEJ039568
         K14HI4T  C2014 05 03.26037315 44 31.22 -19 15 21.4          20.4 RtEJ039H01
         K14HI4T  C2014 05 03.26350815 44 30.36 -19 15 26.0          21.3 RtEJ039H01
         K14HI4T  C2014 05 03.28146615 44 25.42 -19 15 52.7          20.6 RtEJ039H01
         K14HI4T  C2014 05 03.29053215 44 22.91 -19 16 06.2          20.1 RtEJ039H01
         K14HI4T |C2014 05 04.32834 15 39 28.05 -19 42 01.2          20.0 VuEJ039807
         K14HI4T |C2014 05 04.33263 15 39 26.72 -19 42 08.0          20.0 VuEJ039807
         K14HI4T  C2014 05 04.33718 15 39 26.60 -19 42 48.3          21.1 RoEJ039926
         K14HI4T |C2014 05 04.33781 15 39 25.10 -19 42 16.2          20.0 VuEJ039807
         K14HI4T  C2014 05 04.34546 15 39 23.98 -19 43 01.2          20.6 RoEJ039926
         K14HI4T  C2014 05 04.35375 15 39 21.39 -19 43 14.5          20.5 RoEJ039926
    
    Observer details:
    568 Mauna Kea.  Observers R. J. Wainscoat, D. Woodworth.  Measurers P. Veres,
        R. J. Wainscoat, E. Schunova.  3.6-m Canada-France-Hawaii Telescope + CCD.
    807 Cerro Tololo.  Observers T. Linder, R. Holmes.  0.41-m f/11
        Ritchey-Chretien + CCD.
    926 Tenagra II Observatory.  Observers M. Schwartz, P. R. Holvorcem.  0.41-m
        f/3.75 astrograph + CCD, 0.81-m f/7 Ritchey-Chretien + CCD.
    F51 Pan-STARRS 1, Haleakala.  Observers N. Primak, A. Schultz, T. Goggia,
        M. Willman.  Measurer PS1 Science Consortium.  1.8-m Ritchey-Chretien
        + CCD.
    H01 Magdalena Ridge Observatory, Socorro.  Observers W. H. Ryan, E. V. Ryan.
        Measurer W. H. Ryan.  2.4-m f/8.9 reflector + CCD.
    
    Orbital elements:
    2014 HT184                                               Earth MOID = 0.0613 AU
    Epoch 2014 May 23.0 TT = JDT 2456800.5                  MPC
    M 333.32581              (2000.0)            P               Q
    n   0.57798228     Peri.  316.91250     +0.97059233     -0.02738651
    a   1.4273365      Node    46.35988     +0.16647656     +0.79399839
    e   0.7872220      Incl.   19.29805     -0.17388526     +0.60730267
    P   1.71           H   21.7           G   0.15           U   9
    Residuals in seconds of arc
    140430 F51  0.5+  0.1-    140503 H01  0.0   0.0     140504 926  0.1+  0.2-
    140430 F51  1.0-  0.4+    140503 H01  0.0   0.0     140504 807  0.0   0.1-
    140430 F51  0.5+  0.2-    140503 H01  0.0   0.0     140504 926  0.2-  0.1+
    140501 568  0.1+  0.0     140503 H01  0.1-  0.1-    140504 926  0.1-  0.1+
    140501 568  0.0   0.0     140504 807  0.1+  0.1+
    140501 568  0.0   0.0     140504 807  0.1+  0.0
    
    Ephemeris:
    2014 HT184               a,e,i = 1.43, 0.79, 19                  q = 0.3037
    Date    TT    R. A. (2000) Decl.     Delta      r     Elong.  Phase     V
    2014 04 04    16 19 47.2 -14 16 40   0.7909  1.6125   128.0    29.2    23.5
    ...
    2014 04 19    16 15 51.8 -15 45 44   0.5199  1.4551   143.4    24.3    22.2
    ...
    2014 04 27    16 04 16.5 -17 15 55   0.3858  1.3633   153.8    19.0    21.3
    ...
    2014 05 03    15 45 38.4 -19 08 41   0.2915  1.2905   163.8    12.6    20.3
    2014 05 04    15 41 06.1 -19 33 30   0.2765  1.2780   165.7    11.2    20.1
    2014 05 05    15 35 59.2 -20 00 32   0.2616  1.2654   167.8     9.7    19.9
    ...
    2014 05 11    14 46 15.8 -23 40 00   0.1792  1.1875   171.8     6.9    18.9
    ...
    2014 05 19    11 41 15.1 -27 08 53   0.1086  1.0772   124.8    50.5    18.9
    ...
    2014 06 03    06 45 47.8 -01 39 28   0.2271  0.8480    38.4   132.1    24.0
    
    A. U. Tomatic                (C) Copyright 2014 MPC           M.P.E.C. 2014-J39
    

    Read MPEC 2014-J38 Read MPEC 2014-J40


    MPEC number:

    Enter an MPEC number in one of the following forms:

    • 1997-B01 (the full form)
    • J97B01 (the packed version of the full form)
    • B01 (the abbreviated form)